OCN9PZ EDDF-GCRR

Flight info

Callsign OCN9PZ
Flight time 4h 22m
Altitude 34000
Route ANEKI2L ANEKI Y163 HERBI Y164 MOPAN DCT LUTIX DCT BENOT DCT NEMOS DCT NINTU DCT MEBAK DCT REPSI DCT LERGA DCT MINSO DCT NARAK DCT AGN DCT MAQAB DCT TIVLI N869 ZAR Z245 CJN N10 SVL N857 KORNO UN857 TERTO
Aircraft A320/M-SDE3FGHIRWY/LB1

Departure

Time 2026-05-04 05:34
Airport Frankfurt Main Airport (EDDF)

Arrival

Time 2026-05-04 09:56
Airport César Manrique-Lanzarote Airport (GCRR)
Time Latitude Longitude Altitude Speed Heading
2026-05-04 04:54 50.04971 8.57681 363 ft 0 kts 22°
2026-05-04 05:23 50.04949 8.57671 362 ft 4 kts
2026-05-04 05:23 50.04923 8.57668 360 ft 3 kts 21°
2026-05-04 05:24 50.04906 8.57653 360 ft 4 kts 75°
2026-05-04 05:24 50.04909 8.57616 358 ft 4 kts 113°
2026-05-04 05:24 50.04915 8.57595 361 ft 0 kts 115°
2026-05-04 05:24 50.04905 8.57628 360 ft 3 kts 114°
2026-05-04 05:25 50.04903 8.57634 364 ft 0 kts 114°
2026-05-04 05:26 50.04901 8.57643 362 ft 6 kts 114°
2026-05-04 05:27 50.04873 8.57742 364 ft 9 kts 113°
2026-05-04 05:28 50.04515 8.57092 358 ft 22 kts 249°
2026-05-04 05:29 50.04462 8.56872 362 ft 21 kts 250°
2026-05-04 05:29 50.04411 8.56652 363 ft 22 kts 250°
2026-05-04 05:29 50.04354 8.56418 362 ft 24 kts 249°
2026-05-04 05:29 50.04291 8.56154 358 ft 27 kts 250°
2026-05-04 05:31 50.03797 8.54213 356 ft 28 kts 246°
2026-05-04 05:31 50.03730 8.53930 347 ft 28 kts 249°
2026-05-04 05:32 50.03661 8.53643 349 ft 29 kts 249°
2026-05-04 05:32 50.03598 8.53392 337 ft 25 kts 249°
2026-05-04 05:32 50.03537 8.53138 338 ft 26 kts 250°
2026-05-04 05:33 50.03425 8.52690 332 ft 17 kts 249°
2026-05-04 05:33 50.03331 8.52595 334 ft 19 kts 183°
2026-05-04 05:33 50.03075 8.52596 335 ft 66 kts 179°
2026-05-04 05:33 50.02405 8.52604 335 ft 124 kts 179°
2026-05-04 05:34 50.01378 8.52613 339 ft 169 kts 180°
2026-05-04 05:34 50.00269 8.52596 1163 ft 147 kts 182°
2026-05-04 05:34 49.99236 8.52616 1728 ft 154 kts 180°
2026-05-04 05:34 49.98088 8.52703 1961 ft 176 kts 180°
2026-05-04 05:35 49.96789 8.52806 2148 ft 198 kts 179°
2026-05-04 05:35 49.95365 8.52914 2386 ft 216 kts 179°
2026-05-04 05:35 49.93824 8.53030 2910 ft 224 kts 179°
2026-05-04 05:35 49.92262 8.53150 3598 ft 225 kts 179°
2026-05-04 05:36 49.90689 8.53270 4269 ft 227 kts 179°
2026-05-04 05:36 49.89100 8.53390 4928 ft 230 kts 180°
2026-05-04 05:36 49.87491 8.53508 5574 ft 233 kts 180°
2026-05-04 05:36 49.85865 8.53624 6242 ft 235 kts 180°
2026-05-04 05:37 49.84210 8.53659 6729 ft 245 kts 185°
2026-05-04 05:37 49.82435 8.53517 7015 ft 264 kts 186°
2026-05-04 05:37 49.80576 8.53312 7622 ft 270 kts 187°
2026-05-04 05:38 49.76784 8.52864 9042 ft 276 kts 187°
2026-05-04 05:38 49.74861 8.52646 9768 ft 278 kts 187°
2026-05-04 05:38 49.72909 8.52429 10283 ft 288 kts 187°
2026-05-04 05:38 49.70824 8.52192 10416 ft 311 kts 187°
2026-05-04 05:39 49.68591 8.51940 10547 ft 332 kts 187°
2026-05-04 05:39 49.63720 8.51413 10910 ft 366 kts 186°
2026-05-04 05:39 49.61163 8.51143 11419 ft 371 kts 186°
2026-05-04 05:40 49.55970 8.50602 12557 ft 377 kts 186°
2026-05-04 05:40 49.53342 8.50325 13110 ft 380 kts 186°
2026-05-04 05:40 49.50694 8.50046 13664 ft 383 kts 185°
2026-05-04 05:41 49.48023 8.49763 14157 ft 386 kts 185°
2026-05-04 05:41 49.45338 8.49479 14638 ft 388 kts 185°
2026-05-04 05:41 49.42636 8.49195 15124 ft 390 kts 185°
2026-05-04 05:41 49.39922 8.48910 15602 ft 392 kts 185°
2026-05-04 05:42 49.37193 8.48621 16084 ft 394 kts 185°
2026-05-04 05:42 49.34456 8.48328 16551 ft 396 kts 185°
2026-05-04 05:42 49.31702 8.48033 17003 ft 398 kts 185°
2026-05-04 05:42 49.28939 8.47718 17454 ft 399 kts 186°
2026-05-04 05:43 49.26160 8.47368 17901 ft 401 kts 186°
2026-05-04 05:43 49.23370 8.46995 18330 ft 404 kts 186°
2026-05-04 05:43 49.20568 8.46612 18690 ft 406 kts 186°
2026-05-04 05:45 49.00665 8.42753 21166 ft 418 kts 195°
2026-05-04 05:45 48.97826 8.41766 21498 ft 419 kts 194°
2026-05-04 05:47 48.77596 8.34758 23702 ft 432 kts 195°
2026-05-04 05:47 48.74666 8.33720 23941 ft 434 kts 195°
2026-05-04 05:47 48.71732 8.32648 24188 ft 435 kts 196°
2026-05-04 05:48 48.68789 8.31555 24412 ft 436 kts 196°
2026-05-04 05:48 48.65839 8.30453 24651 ft 437 kts 196°
2026-05-04 05:48 48.62875 8.29355 24890 ft 438 kts 196°
2026-05-04 05:48 48.59908 8.28267 25126 ft 440 kts 195°
2026-05-04 05:49 48.56930 8.27187 25363 ft 441 kts 195°
2026-05-04 05:49 48.53941 8.26111 25593 ft 442 kts 195°
2026-05-04 05:49 48.50945 8.25034 25824 ft 443 kts 195°
2026-05-04 05:49 48.47944 8.23950 26050 ft 444 kts 196°
2026-05-04 05:51 48.27080 8.16344 28260 ft 437 kts 196°
2026-05-04 05:51 48.24187 8.15020 28579 ft 434 kts 204°
2026-05-04 05:52 48.21459 8.13120 28899 ft 431 kts 208°
2026-05-04 05:52 48.18771 8.11120 29223 ft 430 kts 208°
2026-05-04 05:52 48.16096 8.09130 29559 ft 429 kts 208°
2026-05-04 05:52 48.13423 8.07152 29866 ft 428 kts 208°
2026-05-04 05:53 48.10753 8.05179 30171 ft 428 kts 208°
2026-05-04 05:54 47.93108 7.92228 31989 ft 420 kts 208°
2026-05-04 05:55 47.90488 7.90312 32282 ft 419 kts 208°
2026-05-04 05:55 47.87879 7.88406 32575 ft 417 kts 208°
2026-05-04 05:55 47.85277 7.86509 32865 ft 416 kts 208°
2026-05-04 05:55 47.82686 7.84616 33146 ft 414 kts 208°
2026-05-04 05:56 47.80100 7.82728 33416 ft 413 kts 208°
2026-05-04 05:56 47.77527 7.80851 33709 ft 411 kts 208°
2026-05-04 05:56 47.74960 7.78983 33968 ft 411 kts 208°
2026-05-04 05:56 47.72397 7.77120 34028 ft 410 kts 208°
2026-05-04 05:57 47.67281 7.73408 34032 ft 409 kts 208°
2026-05-04 05:57 47.62166 7.69713 34031 ft 409 kts 208°
2026-05-04 05:58 47.57044 7.66028 34029 ft 409 kts 208°
2026-05-04 05:58 47.51926 7.62344 34030 ft 410 kts 208°
2026-05-04 05:59 47.46793 7.58654 34030 ft 410 kts 208°
2026-05-04 05:59 47.41662 7.54966 34031 ft 410 kts 208°
2026-05-04 06:00 47.36528 7.51293 34034 ft 410 kts 208°
2026-05-04 06:00 47.31387 7.47630 34040 ft 410 kts 207°
2026-05-04 06:01 47.26249 7.43970 34059 ft 410 kts 207°
2026-05-04 06:03 47.10784 7.26495 34044 ft 407 kts 231°
2026-05-04 06:03 47.09019 7.23244 34042 ft 407 kts 231°
2026-05-04 06:05 46.93099 6.94121 34073 ft 407 kts 230°
2026-05-04 06:06 46.89548 6.87674 34072 ft 406 kts 230°
2026-05-04 06:06 46.86005 6.81254 34069 ft 405 kts 230°
2026-05-04 06:07 46.82464 6.74852 34064 ft 405 kts 230°
2026-05-04 06:07 46.78921 6.68461 34056 ft 405 kts 230°
2026-05-04 06:08 46.75374 6.62090 34044 ft 404 kts 230°
2026-05-04 06:08 46.71827 6.55739 34043 ft 404 kts 230°
2026-05-04 06:09 46.68284 6.49403 34064 ft 403 kts 230°
2026-05-04 06:11 46.54079 6.24125 34036 ft 404 kts 230°
2026-05-04 06:13 46.39795 5.98968 34035 ft 404 kts 229°
2026-05-04 06:14 46.27205 5.76934 34029 ft 407 kts 229°
2026-05-04 06:15 46.23592 5.70641 34026 ft 407 kts 229°
2026-05-04 06:15 46.19966 5.64369 34024 ft 407 kts 229°
2026-05-04 06:16 46.16333 5.58098 34021 ft 407 kts 229°
2026-05-04 06:16 46.12932 5.51570 34032 ft 408 kts 233°
2026-05-04 06:17 46.09709 5.44819 34025 ft 409 kts 233°
2026-05-04 06:17 46.06471 5.38085 34014 ft 409 kts 233°
2026-05-04 06:18 46.03223 5.31353 34011 ft 409 kts 233°
2026-05-04 06:20 45.90204 5.04469 34027 ft 410 kts 233°
2026-05-04 06:21 45.82017 4.87713 34014 ft 410 kts 233°
2026-05-04 06:22 45.78760 4.81059 34015 ft 410 kts 232°
2026-05-04 06:25 45.55676 4.34408 34025 ft 411 kts 232°
2026-05-04 06:26 45.52365 4.27768 34033 ft 410 kts 232°
2026-05-04 06:26 45.49052 4.21138 34020 ft 411 kts 232°
2026-05-04 06:27 45.40725 4.04597 34012 ft 411 kts 232°
2026-05-04 06:28 45.37384 3.97987 34010 ft 411 kts 232°
2026-05-04 06:28 45.34048 3.91375 34008 ft 411 kts 232°
2026-05-04 06:29 45.30699 3.84780 34013 ft 411 kts 232°
2026-05-04 06:29 45.27340 3.78194 34008 ft 412 kts 231°
2026-05-04 06:30 45.23989 3.71578 34009 ft 413 kts 232°
2026-05-04 06:30 45.20710 3.64895 34011 ft 413 kts 233°
2026-05-04 06:31 45.17439 3.58191 34010 ft 413 kts 232°
2026-05-04 06:31 45.14152 3.51514 34007 ft 413 kts 232°
2026-05-04 06:33 45.00914 3.24904 34004 ft 413 kts 232°
2026-05-04 06:34 44.97599 3.18277 33994 ft 413 kts 232°
2026-05-04 06:34 44.94276 3.11662 33989 ft 413 kts 232°
2026-05-04 06:36 44.81650 2.86233 34000 ft 413 kts 234°
2026-05-04 06:37 44.78568 2.79394 33992 ft 414 kts 235°
2026-05-04 06:37 44.75476 2.72574 33985 ft 413 kts 234°
2026-05-04 06:38 44.72344 2.65798 34006 ft 413 kts 234°
2026-05-04 06:40 44.59779 2.38854 33998 ft 411 kts 234°
2026-05-04 06:40 44.56642 2.32147 33982 ft 411 kts 234°
2026-05-04 06:41 44.53504 2.25450 34010 ft 411 kts 234°
2026-05-04 06:41 44.50360 2.18771 34001 ft 410 kts 234°
2026-05-04 06:42 44.47207 2.12108 33994 ft 410 kts 234°
2026-05-04 06:44 44.34637 1.85582 33972 ft 409 kts 234°
2026-05-04 06:44 44.31475 1.78962 33964 ft 410 kts 234°
2026-05-04 06:45 44.28316 1.72335 33961 ft 410 kts 234°
2026-05-04 06:45 44.25233 1.65622 33961 ft 411 kts 235°
2026-05-04 06:46 44.22171 1.58891 33959 ft 411 kts 235°
2026-05-04 06:46 44.19088 1.52180 33990 ft 411 kts 234°
2026-05-04 06:48 44.06687 1.25417 33972 ft 411 kts 234°
2026-05-04 06:50 43.94234 0.98822 33969 ft 410 kts 234°
2026-05-04 06:51 43.91119 0.92203 33968 ft 410 kts 234°
2026-05-04 06:51 43.87693 0.85927 33958 ft 407 kts 223°
2026-05-04 06:52 43.83475 0.80690 33960 ft 407 kts 221°
2026-05-04 06:52 43.79249 0.75473 34004 ft 407 kts 221°
2026-05-04 06:53 43.75032 0.70267 33986 ft 405 kts 221°
2026-05-04 06:53 43.70825 0.65088 33990 ft 404 kts 221°
2026-05-04 06:54 43.66630 0.59934 33983 ft 403 kts 221°
2026-05-04 06:54 43.62436 0.54794 33972 ft 403 kts 221°
2026-05-04 06:55 43.58244 0.49665 33977 ft 402 kts 221°
2026-05-04 06:55 43.54062 0.44543 33983 ft 402 kts 221°
2026-05-04 06:57 43.37324 0.24220 33989 ft 401 kts 222°
2026-05-04 06:58 43.33144 0.19159 33982 ft 400 kts 221°
2026-05-04 06:58 43.28960 0.14107 33982 ft 400 kts 221°
2026-05-04 06:59 43.24775 0.09070 33986 ft 400 kts 221°
2026-05-04 06:59 43.20588 0.04040 33972 ft 400 kts 222°
2026-05-04 07:01 43.03796 -0.16043 33984 ft 402 kts 222°
2026-05-04 07:02 42.99582 -0.21071 33984 ft 401 kts 222°
2026-05-04 07:02 42.95376 -0.26066 33991 ft 400 kts 222°
2026-05-04 07:03 42.91180 -0.31047 34005 ft 399 kts 222°
2026-05-04 07:03 42.86992 -0.36002 33995 ft 398 kts 222°
2026-05-04 07:04 42.82804 -0.40946 33993 ft 398 kts 222°
2026-05-04 07:04 42.78111 -0.44941 33989 ft 402 kts 205°
2026-05-04 07:05 42.72884 -0.47696 33991 ft 403 kts 205°
2026-05-04 07:05 42.67650 -0.50446 33993 ft 403 kts 205°
2026-05-04 07:06 42.59804 -0.54560 33980 ft 403 kts 205°
2026-05-04 07:07 42.54608 -0.57278 33989 ft 403 kts 205°
2026-05-04 07:09 42.33758 -0.68172 33974 ft 400 kts 205°
2026-05-04 07:09 42.28559 -0.70871 33976 ft 400 kts 205°
2026-05-04 07:10 42.23367 -0.73561 33991 ft 399 kts 205°
2026-05-04 07:12 42.02632 -0.84245 33979 ft 398 kts 205°
2026-05-04 07:12 41.97451 -0.86908 33958 ft 398 kts 205°
2026-05-04 07:13 41.92279 -0.89569 33959 ft 398 kts 205°
2026-05-04 07:13 41.87097 -0.92232 33963 ft 399 kts 205°
2026-05-04 07:14 41.74126 -0.98860 33966 ft 399 kts 206°
2026-05-04 07:15 41.68945 -1.01491 33978 ft 398 kts 206°
2026-05-04 07:15 41.64189 -1.05055 33982 ft 389 kts 222°
2026-05-04 07:16 41.60179 -1.09892 33987 ft 388 kts 224°
2026-05-04 07:16 41.56167 -1.14719 34020 ft 388 kts 224°
2026-05-04 07:17 41.52157 -1.19548 34000 ft 388 kts 224°
2026-05-04 07:17 41.48152 -1.24363 33974 ft 387 kts 224°
2026-05-04 07:18 41.44147 -1.29163 33969 ft 387 kts 224°
2026-05-04 07:18 41.40149 -1.33956 33969 ft 387 kts 224°
2026-05-04 07:19 41.36151 -1.38741 33965 ft 387 kts 224°
2026-05-04 07:19 41.32819 -1.42717 33934 ft 386 kts 224°
2026-05-04 07:20 41.28811 -1.47489 33956 ft 387 kts 224°
2026-05-04 07:20 41.24803 -1.52265 33960 ft 387 kts 224°
2026-05-04 07:22 41.08787 -1.71248 33970 ft 385 kts 224°
2026-05-04 07:23 41.04797 -1.75962 33978 ft 384 kts 224°
2026-05-04 07:23 41.00808 -1.80668 33977 ft 383 kts 224°
2026-05-04 07:24 40.96826 -1.85361 33972 ft 383 kts 224°
2026-05-04 07:24 40.92839 -1.90038 33965 ft 383 kts 224°
2026-05-04 07:26 40.76893 -2.08672 33965 ft 383 kts 224°
2026-05-04 07:27 40.72889 -2.13319 33960 ft 383 kts 224°
2026-05-04 07:27 40.68889 -2.17973 33965 ft 384 kts 224°
2026-05-04 07:28 40.64884 -2.22619 33968 ft 384 kts 224°
2026-05-04 07:28 40.60877 -2.27253 33972 ft 383 kts 224°
2026-05-04 07:29 40.56860 -2.31880 33998 ft 384 kts 223°
2026-05-04 07:29 40.52843 -2.36507 33989 ft 384 kts 224°
2026-05-04 07:30 40.48828 -2.41131 33983 ft 384 kts 223°
2026-05-04 07:30 40.44801 -2.45752 33958 ft 384 kts 223°
2026-05-04 07:31 40.40778 -2.50361 33967 ft 384 kts 224°
2026-05-04 07:33 40.26624 -2.71116 34005 ft 382 kts 231°
2026-05-04 07:33 40.23210 -2.76464 34006 ft 383 kts 231°
2026-05-04 07:34 40.21501 -2.79139 34199 ft 383 kts 231°
2026-05-04 07:34 40.19796 -2.81803 34450 ft 382 kts 231°
2026-05-04 07:34 40.18089 -2.84471 34672 ft 381 kts 231°
2026-05-04 07:34 40.16385 -2.87135 34859 ft 382 kts 231°
2026-05-04 07:35 40.14679 -2.89802 35033 ft 383 kts 231°
2026-05-04 07:35 40.12968 -2.92472 35196 ft 384 kts 231°
2026-05-04 07:35 40.11252 -2.95147 35380 ft 384 kts 231°
2026-05-04 07:35 40.09534 -2.97822 35540 ft 385 kts 231°
2026-05-04 07:36 40.07813 -3.00498 35702 ft 385 kts 231°
2026-05-04 07:36 40.06089 -3.03178 35871 ft 385 kts 231°
2026-05-04 07:38 39.93939 -3.21999 35995 ft 387 kts 231°
2026-05-04 07:38 39.92203 -3.24678 35995 ft 387 kts 231°
2026-05-04 07:38 39.88727 -3.30036 35988 ft 387 kts 231°
2026-05-04 07:39 39.85248 -3.35390 35989 ft 387 kts 231°
2026-05-04 07:39 39.81762 -3.40738 35989 ft 387 kts 231°
2026-05-04 07:40 39.78278 -3.46083 36014 ft 387 kts 231°
2026-05-04 07:40 39.74608 -3.51219 35975 ft 388 kts 227°
2026-05-04 07:41 39.70766 -3.56154 35982 ft 388 kts 227°
2026-05-04 07:41 39.66925 -3.61079 35987 ft 388 kts 227°
2026-05-04 07:42 39.63122 -3.66046 35984 ft 388 kts 228°
2026-05-04 07:42 39.59335 -3.71024 35984 ft 388 kts 228°
2026-05-04 07:43 39.55550 -3.76005 35984 ft 388 kts 228°
2026-05-04 07:43 39.51759 -3.80972 35983 ft 388 kts 228°
2026-05-04 07:44 39.47959 -3.85924 35981 ft 388 kts 228°
2026-05-04 07:44 39.44152 -3.90867 35983 ft 388 kts 228°
2026-05-04 07:45 39.40345 -3.95813 35980 ft 388 kts 228°
2026-05-04 07:45 39.36542 -4.00765 35984 ft 388 kts 228°
2026-05-04 07:46 39.32732 -4.05708 35987 ft 388 kts 228°
2026-05-04 07:46 39.28914 -4.10644 35990 ft 388 kts 227°
2026-05-04 07:47 39.25094 -4.15572 35977 ft 388 kts 228°
2026-05-04 07:49 39.09802 -4.35271 36015 ft 389 kts 228°
2026-05-04 07:49 39.05967 -4.40183 36018 ft 389 kts 227°
2026-05-04 07:50 39.02125 -4.45097 36000 ft 389 kts 228°
2026-05-04 07:50 38.98279 -4.50006 36010 ft 390 kts 228°
2026-05-04 07:51 38.94436 -4.54912 36023 ft 390 kts 228°
2026-05-04 07:51 38.90587 -4.59818 36047 ft 389 kts 228°
2026-05-04 07:52 38.86739 -4.64704 36047 ft 389 kts 228°
2026-05-04 07:52 38.82890 -4.69583 36044 ft 389 kts 228°
2026-05-04 07:54 38.67503 -4.89025 36043 ft 389 kts 228°
2026-05-04 07:55 38.63648 -4.93878 36043 ft 389 kts 227°
2026-05-04 07:55 38.59788 -4.98728 36043 ft 389 kts 227°
2026-05-04 07:56 38.55919 -5.03573 36040 ft 390 kts 227°
2026-05-04 07:56 38.52039 -5.08409 36018 ft 391 kts 225°
2026-05-04 07:57 38.47379 -5.12124 36032 ft 400 kts 211°
2026-05-04 07:57 38.42366 -5.15223 36039 ft 401 kts 212°
2026-05-04 07:58 38.37355 -5.18339 36048 ft 401 kts 212°
2026-05-04 07:58 38.32344 -5.21453 36055 ft 401 kts 212°
2026-05-04 07:59 38.27329 -5.24562 36059 ft 401 kts 212°
2026-05-04 07:59 38.22343 -5.27637 36060 ft 401 kts 211°
2026-05-04 08:00 38.17326 -5.30734 36060 ft 401 kts 211°
2026-05-04 08:02 37.98029 -5.42616 36050 ft 403 kts 212°
2026-05-04 08:02 37.92984 -5.45713 36054 ft 403 kts 212°
2026-05-04 08:03 37.87933 -5.48797 36060 ft 403 kts 211°
2026-05-04 08:03 37.82878 -5.51877 36066 ft 403 kts 211°
2026-05-04 08:04 37.77831 -5.54953 36341 ft 401 kts 212°
2026-05-04 08:04 37.75322 -5.56479 36543 ft 400 kts 212°
2026-05-04 08:04 37.72815 -5.58006 36714 ft 400 kts 212°
2026-05-04 08:05 37.70311 -5.59532 36898 ft 399 kts 212°
2026-05-04 08:05 37.67810 -5.61055 37036 ft 400 kts 212°
2026-05-04 08:05 37.62799 -5.64101 37059 ft 400 kts 212°
2026-05-04 08:06 37.57788 -5.67136 37007 ft 400 kts 212°
2026-05-04 08:06 37.52793 -5.70160 37056 ft 397 kts 212°
2026-05-04 08:08 37.36602 -5.82796 37063 ft 389 kts 225°
2026-05-04 08:08 37.34534 -5.85000 37064 ft 389 kts 225°
2026-05-04 08:11 37.15949 -6.04707 37081 ft 388 kts 225°
2026-05-04 08:11 37.09755 -6.11247 37084 ft 388 kts 225°
2026-05-04 08:12 37.05614 -6.15611 37039 ft 389 kts 225°
2026-05-04 08:12 37.01477 -6.19966 37058 ft 389 kts 225°
2026-05-04 08:13 36.97339 -6.24316 37075 ft 388 kts 225°
2026-05-04 08:13 36.93227 -6.28634 37084 ft 388 kts 225°
2026-05-04 08:14 36.89080 -6.32973 37090 ft 389 kts 225°
2026-05-04 08:16 36.72485 -6.50301 37088 ft 389 kts 225°
2026-05-04 08:16 36.68334 -6.54627 37090 ft 389 kts 225°
2026-05-04 08:17 36.64185 -6.58942 37095 ft 389 kts 225°
2026-05-04 08:17 36.60024 -6.63250 37095 ft 389 kts 225°
2026-05-04 08:19 36.43389 -6.80438 37095 ft 389 kts 225°
2026-05-04 08:20 36.39225 -6.84731 37111 ft 389 kts 225°
2026-05-04 08:20 36.35053 -6.89018 37112 ft 389 kts 225°
2026-05-04 08:21 36.30876 -6.93296 37111 ft 389 kts 225°
2026-05-04 08:21 36.26702 -6.97578 37066 ft 390 kts 225°
2026-05-04 08:22 36.22517 -7.01862 37082 ft 390 kts 225°
2026-05-04 08:24 36.05724 -7.18982 37124 ft 391 kts 225°
2026-05-04 08:24 36.01519 -7.23249 37094 ft 391 kts 225°
2026-05-04 08:25 35.97314 -7.27521 37099 ft 392 kts 225°
2026-05-04 08:25 35.93105 -7.31795 37106 ft 392 kts 225°
2026-05-04 08:27 35.76190 -7.48815 37128 ft 393 kts 224°
2026-05-04 08:28 35.71935 -7.53039 37129 ft 393 kts 224°
2026-05-04 08:28 35.67686 -7.57271 37129 ft 393 kts 224°
2026-05-04 08:29 35.63440 -7.61499 37140 ft 393 kts 224°
2026-05-04 08:31 35.46414 -7.78373 37116 ft 393 kts 224°
2026-05-04 08:33 35.29471 -7.95242 37136 ft 393 kts 225°
2026-05-04 08:35 35.12525 -8.12103 37137 ft 392 kts 225°
2026-05-04 08:35 35.08292 -8.16291 37140 ft 392 kts 225°
2026-05-04 08:37 34.93500 -8.30923 37128 ft 390 kts 225°
2026-05-04 08:38 34.89286 -8.35079 37131 ft 389 kts 225°
2026-05-04 08:38 34.85075 -8.39221 37138 ft 389 kts 225°
2026-05-04 08:40 34.68263 -8.55703 37116 ft 388 kts 225°
2026-05-04 08:41 34.64065 -8.59803 37146 ft 387 kts 225°
2026-05-04 08:41 34.59876 -8.63891 37141 ft 386 kts 225°
2026-05-04 08:42 34.55692 -8.67972 37143 ft 386 kts 225°
2026-05-04 08:42 34.51511 -8.72046 37138 ft 385 kts 225°
2026-05-04 08:43 34.47329 -8.76116 37130 ft 385 kts 224°
2026-05-04 08:43 34.43851 -8.79493 37125 ft 386 kts 224°
2026-05-04 08:44 34.39654 -8.83540 37118 ft 386 kts 224°
2026-05-04 08:46 34.22857 -8.99640 37135 ft 385 kts 224°
2026-05-04 08:46 34.18659 -9.03655 37137 ft 385 kts 224°
2026-05-04 08:47 34.14457 -9.07669 37141 ft 385 kts 224°
2026-05-04 08:47 34.10256 -9.11682 37104 ft 386 kts 224°
2026-05-04 08:48 34.06037 -9.15708 37109 ft 387 kts 224°
2026-05-04 08:48 34.01796 -9.19736 37116 ft 388 kts 224°
2026-05-04 08:49 33.97554 -9.23772 37120 ft 389 kts 224°
2026-05-04 08:50 33.82658 -9.37880 37110 ft 390 kts 223°
2026-05-04 08:51 33.78387 -9.41915 37115 ft 391 kts 223°
2026-05-04 08:51 33.74110 -9.45954 37111 ft 391 kts 223°
2026-05-04 08:52 33.69820 -9.49996 37119 ft 393 kts 223°
2026-05-04 08:52 33.65513 -9.54041 37123 ft 394 kts 223°
2026-05-04 08:54 33.48221 -9.70261 37110 ft 396 kts 223°
2026-05-04 08:55 33.43874 -9.74329 37120 ft 397 kts 223°
2026-05-04 08:55 33.39519 -9.78402 37118 ft 397 kts 223°
2026-05-04 09:01 32.93494 -10.21019 37130 ft 399 kts 223°
2026-05-04 09:01 32.89105 -10.25066 37128 ft 400 kts 223°
2026-05-04 09:02 32.84700 -10.29106 37130 ft 400 kts 223°
2026-05-04 09:02 32.80294 -10.33141 37127 ft 400 kts 223°
2026-05-04 09:03 32.75884 -10.37175 37130 ft 400 kts 223°
2026-05-04 09:03 32.71467 -10.41201 37105 ft 400 kts 223°
2026-05-04 09:04 32.67051 -10.45233 37111 ft 400 kts 223°
2026-05-04 09:04 32.62636 -10.49267 37117 ft 401 kts 223°
2026-05-04 09:05 32.58214 -10.53295 37120 ft 401 kts 223°
2026-05-04 09:05 32.53782 -10.57315 37124 ft 401 kts 223°
2026-05-04 09:06 32.49351 -10.61339 37128 ft 402 kts 223°
2026-05-04 09:08 32.31580 -10.77429 37118 ft 402 kts 222°
2026-05-04 09:08 32.27129 -10.81443 37124 ft 402 kts 222°
2026-05-04 09:09 32.22673 -10.85453 37130 ft 403 kts 222°
2026-05-04 09:09 32.18218 -10.89454 37134 ft 403 kts 222°
2026-05-04 09:10 32.13763 -10.93460 37106 ft 402 kts 222°
2026-05-04 09:10 32.09313 -10.97471 37115 ft 402 kts 222°
2026-05-04 09:11 32.04856 -11.01470 37127 ft 403 kts 222°
2026-05-04 09:11 32.00394 -11.05459 37129 ft 403 kts 222°
2026-05-04 09:12 31.95929 -11.09448 37130 ft 403 kts 222°
2026-05-04 09:14 31.78060 -11.25368 37113 ft 402 kts 222°
2026-05-04 09:14 31.73599 -11.29332 37116 ft 402 kts 222°
2026-05-04 09:15 31.69146 -11.33307 37113 ft 402 kts 222°
2026-05-04 09:15 31.64694 -11.37279 37117 ft 402 kts 222°
2026-05-04 09:17 31.44654 -11.55070 37119 ft 401 kts 223°
2026-05-04 09:18 31.40214 -11.59009 37118 ft 400 kts 223°
2026-05-04 09:18 31.35801 -11.62915 37124 ft 400 kts 223°
2026-05-04 09:19 31.31323 -11.66862 37118 ft 400 kts 223°
2026-05-04 09:19 31.26876 -11.70781 37121 ft 400 kts 223°
2026-05-04 09:20 31.22435 -11.74700 37104 ft 400 kts 223°
2026-05-04 09:20 31.17996 -11.78605 37120 ft 399 kts 223°
2026-05-04 09:21 31.13564 -11.82501 37132 ft 399 kts 223°
2026-05-04 09:21 31.09161 -11.86362 37140 ft 398 kts 223°
2026-05-04 09:22 31.04726 -11.90243 37125 ft 398 kts 223°
2026-05-04 09:22 31.00298 -11.94125 37125 ft 398 kts 223°
2026-05-04 09:23 30.95866 -11.98004 37112 ft 398 kts 223°
2026-05-04 09:23 30.91433 -12.01868 37120 ft 398 kts 223°
2026-05-04 09:25 30.73709 -12.17294 37131 ft 398 kts 223°
2026-05-04 09:26 30.69277 -12.21142 37134 ft 398 kts 223°
2026-05-04 09:26 30.65592 -12.24342 37104 ft 398 kts 223°
2026-05-04 09:27 30.61165 -12.28186 37121 ft 397 kts 223°
2026-05-04 09:27 30.56728 -12.32018 37130 ft 397 kts 223°
2026-05-04 09:28 30.52268 -12.35864 37139 ft 397 kts 223°
2026-05-04 09:28 30.47839 -12.39692 37136 ft 397 kts 223°
2026-05-04 09:29 30.43409 -12.43508 37143 ft 397 kts 223°
2026-05-04 09:29 30.38970 -12.47315 37143 ft 397 kts 223°
2026-05-04 09:30 30.34523 -12.51114 37114 ft 397 kts 223°
2026-05-04 09:30 30.30081 -12.54917 37125 ft 397 kts 223°
2026-05-04 09:31 30.25642 -12.58728 37130 ft 397 kts 223°
2026-05-04 09:31 30.21199 -12.62527 37132 ft 397 kts 223°
2026-05-04 09:32 30.16753 -12.66319 37133 ft 397 kts 223°
2026-05-04 09:34 30.02923 -12.81397 36002 ft 394 kts 233°
2026-05-04 09:34 30.01089 -12.83763 35147 ft 398 kts 232°
2026-05-04 09:34 29.99233 -12.86151 34322 ft 401 kts 232°
2026-05-04 09:34 29.97363 -12.88552 33417 ft 403 kts 232°
2026-05-04 09:35 29.95485 -12.90967 32532 ft 405 kts 232°
2026-05-04 09:35 29.93601 -12.93389 31679 ft 406 kts 232°
2026-05-04 09:35 29.91670 -12.95777 30852 ft 410 kts 227°
2026-05-04 09:35 29.89408 -12.97811 30019 ft 417 kts 217°
2026-05-04 09:37 29.69362 -13.06121 24034 ft 449 kts 203°
2026-05-04 09:37 29.66400 -13.07260 23291 ft 448 kts 203°
2026-05-04 09:38 29.63445 -13.08396 22631 ft 447 kts 203°
2026-05-04 09:38 29.60511 -13.09528 21988 ft 443 kts 203°
2026-05-04 09:38 29.57654 -13.10628 21412 ft 434 kts 202°
2026-05-04 09:38 29.54781 -13.11731 20914 ft 424 kts 202°
2026-05-04 09:39 29.52046 -13.12782 20425 ft 416 kts 202°
2026-05-04 09:39 29.49329 -13.13825 19969 ft 408 kts 202°
2026-05-04 09:39 29.46687 -13.14838 19531 ft 392 kts 202°
2026-05-04 09:39 29.44111 -13.15824 19093 ft 378 kts 202°
2026-05-04 09:40 29.41659 -13.16764 18689 ft 368 kts 202°
2026-05-04 09:40 29.39244 -13.17694 18263 ft 364 kts 202°
2026-05-04 09:40 29.36857 -13.18615 17787 ft 360 kts 202°
2026-05-04 09:40 29.34478 -13.19494 17324 ft 358 kts 201°
2026-05-04 09:41 29.32129 -13.20277 16891 ft 355 kts 200°
2026-05-04 09:42 29.16909 -13.25122 14181 ft 301 kts 201°
2026-05-04 09:43 29.14915 -13.25805 13788 ft 297 kts 202°
2026-05-04 09:43 29.12944 -13.26477 13370 ft 294 kts 202°
2026-05-04 09:43 29.10980 -13.27143 12960 ft 295 kts 201°
2026-05-04 09:43 29.09022 -13.27804 12543 ft 289 kts 201°
2026-05-04 09:44 29.07123 -13.28441 12146 ft 280 kts 201°
2026-05-04 09:44 29.05279 -13.29058 11750 ft 272 kts 202°
2026-05-04 09:44 29.03491 -13.29658 11358 ft 264 kts 202°
2026-05-04 09:46 28.93241 -13.36518 9277 ft 241 kts 226°
2026-05-04 09:46 28.91990 -13.37796 8964 ft 242 kts 226°
2026-05-04 09:46 28.90738 -13.39075 8667 ft 241 kts 226°
2026-05-04 09:47 28.89489 -13.40352 8369 ft 241 kts 226°
2026-05-04 09:47 28.88240 -13.41630 8069 ft 241 kts 225°
2026-05-04 09:49 28.79464 -13.50572 6042 ft 242 kts 224°
2026-05-04 09:49 28.78214 -13.51847 5748 ft 241 kts 224°
2026-05-04 09:49 28.76967 -13.53115 5458 ft 240 kts 224°
2026-05-04 09:51 28.74119 -13.62657 3796 ft 221 kts 289°
2026-05-04 09:51 28.74567 -13.64324 3547 ft 220 kts 289°
2026-05-04 09:51 28.75044 -13.65975 3301 ft 218 kts 297°
2026-05-04 09:51 28.75872 -13.67384 3055 ft 213 kts 317°
2026-05-04 09:52 28.77025 -13.68407 2804 ft 209 kts 333°
2026-05-04 09:52 28.78367 -13.68970 2547 ft 205 kts 354°
2026-05-04 09:52 28.79765 -13.68927 2372 ft 198 kts 15°
2026-05-04 09:52 28.81005 -13.68358 2336 ft 186 kts 28°
2026-05-04 09:53 28.82133 -13.67707 2341 ft 176 kts 27°
2026-05-04 09:53 28.83204 -13.67090 2244 ft 170 kts 28°
2026-05-04 09:53 28.84242 -13.66491 2058 ft 165 kts 28°
2026-05-04 09:53 28.85259 -13.65903 1870 ft 164 kts 28°
2026-05-04 09:54 28.86272 -13.65316 1645 ft 163 kts 28°
2026-05-04 09:54 28.87229 -13.64763 1423 ft 144 kts 28°
2026-05-04 09:54 28.88098 -13.64260 1237 ft 138 kts 28°
2026-05-04 09:54 28.88960 -13.63761 1058 ft 136 kts 27°
2026-05-04 09:55 28.89790 -13.63280 887 ft 135 kts 28°
2026-05-04 09:55 28.90627 -13.62802 722 ft 135 kts 30°
2026-05-04 09:55 28.91464 -13.62329 548 ft 134 kts 32°
2026-05-04 09:55 28.92288 -13.61843 311 ft 133 kts 33°
2026-05-04 09:56 28.93106 -13.61350 172 ft 132 kts 32°
2026-05-04 09:56 28.93937 -13.60886 43 ft 132 kts 33°
2026-05-04 09:56 28.94643 -13.60456 38 ft 85 kts 27°
2026-05-04 09:56 28.94921 -13.60297 45 ft 21 kts 27°
2026-05-04 09:57 28.95051 -13.60228 50 ft 20 kts 19°
2026-05-04 09:57 28.95187 -13.60202 49 ft 15 kts 358°
2026-05-04 09:57 28.95276 -13.60209 50 ft 12 kts 355°
2026-05-04 09:57 28.95338 -13.60272 50 ft 16 kts 298°
2026-05-04 09:58 28.95380 -13.60372 50 ft 12 kts 280°
2026-05-04 09:58 28.95332 -13.60426 50 ft 11 kts 206°
2026-05-04 09:58 28.95235 -13.60480 50 ft 16 kts 206°
2026-05-04 10:00 28.95058 -13.60730 50 ft 0 kts 296°